User: anonymous   Login
Location: Brno
(49.2000°N, 16.6330°E)
Time: 23:34:48
(UTC+02:00)
Language:

Cosmos 332 Rocket - Orbit

View from above orbital plane
View from above orbital plane
View from above satellite
View from above satellite

Ground track
Ground track

The orbit data is extracted from the following two-line orbital elements,

1 04370U 70028B   16242.41442391  .00000025  00000-0  11458-4 0  9994
2 04370  74.0390 285.6886 0016986 277.9994  81.9244 14.59781668969400
Epoch (UTC): 29 August 2016 09:56:46
Eccentricity: 0.0016986
inclination: 74.0390°
perigee height: 682 km
apogee height: 706 km
right ascension of ascending node: 285.6886°
argument of perigee: 277.9994°
revolutions per day: 14.59781668
mean anomaly at epoch: 81.9244°
orbit number at epoch: 96940

The dashed part of the orbit path shows where the satellite is in the earth's shadow,  

DLR